TimeCDT,TemperatureF,Dew PointF,Humidity,Sea Level PressureIn,VisibilityMPH,Wind Direction,Wind SpeedMPH,Gust SpeedMPH,PrecipitationIn,Events,Conditions,WindDirDegrees,DateUTC
12:53 AM,71.1,44.1,38,29.88,10.0,South,11.5,19.6,N/A,,Clear,170,2013-07-04 05:53:00
1:53 AM,69.1,45.0,42,29.87,10.0,South,11.5,-,N/A,,Clear,170,2013-07-04 06:53:00
2:53 AM,69.1,46.0,44,29.86,10.0,South,12.7,-,N/A,,Clear,180,2013-07-04 07:53:00
3:53 AM,66.0,46.9,50,29.86,10.0,South,10.4,-,N/A,,Clear,180,2013-07-04 08:53:00
4:53 AM,64.9,46.9,52,29.86,10.0,South,6.9,-,N/A,,Clear,190,2013-07-04 09:53:00
5:53 AM,64.0,46.9,54,29.87,10.0,SSW,10.4,-,N/A,,Partly Cloudy,200,2013-07-04 10:53:00
6:53 AM,62.1,46.9,58,29.88,9.0,South,3.5,-,N/A,,Partly Cloudy,180,2013-07-04 11:53:00
7:53 AM,64.9,48.9,56,29.88,9.0,SE,5.8,-,N/A,,Scattered Clouds,130,2013-07-04 12:53:00
8:53 AM,71.1,48.9,45,29.88,9.0,SSE,8.1,-,N/A,,Scattered Clouds,160,2013-07-04 13:53:00
9:53 AM,78.1,48.0,35,29.87,9.0,SSW,15.0,-,N/A,,Clear,200,2013-07-04 14:53:00
10:53 AM,82.9,48.9,31,29.86,10.0,South,12.7,-,N/A,,Clear,190,2013-07-04 15:53:00
11:53 AM,88.0,48.9,26,29.84,10.0,South,15.0,-,N/A,,Clear,190,2013-07-04 16:53:00
12:53 PM,91.0,42.1,18,29.82,10.0,South,13.8,-,N/A,,Clear,180,2013-07-04 17:53:00
1:53 PM,91.0,41.0,17,29.82,10.0,SSE,10.4,26.5,N/A,,Clear,160,2013-07-04 18:53:00
2:53 PM,93.0,41.0,16,29.80,10.0,South,13.8,18.4,N/A,,Clear,170,2013-07-04 19:53:00
3:53 PM,91.9,41.0,17,29.79,10.0,Calm,Calm,-,N/A,,Clear,0,2013-07-04 20:53:00
4:53 PM,93.0,42.1,17,29.78,10.0,SW,8.1,-,N/A,,Clear,220,2013-07-04 21:53:00
5:53 PM,91.9,43.0,18,29.77,10.0,SSE,8.1,-,N/A,,Clear,160,2013-07-04 22:53:00
6:53 PM,93.0,42.1,17,29.75,10.0,South,8.1,-,N/A,,Clear,180,2013-07-04 23:53:00
7:53 PM,88.0,44.1,22,29.75,10.0,SSE,8.1,-,N/A,,Clear,150,2013-07-05 00:53:00
8:53 PM,84.9,44.1,24,29.76,10.0,SSE,8.1,-,N/A,,Clear,150,2013-07-05 01:53:00
9:53 PM,82.9,44.1,25,29.76,10.0,SSE,11.5,-,N/A,,Clear,160,2013-07-05 02:53:00
10:53 PM,81.0,43.0,26,29.78,10.0,SSE,6.9,-,N/A,,Clear,160,2013-07-05 03:53:00
11:53 PM,79.0,44.1,29,29.77,10.0,North,-9999.0,-,N/A,,Clear,0,2013-07-05 04:53:00